Tracking 27097 objects as of 29-Mar-2023
HD Live streaming from Space Station
objects crossing your sky now

CZ-4C DEB

Track CZ-4C DEB now!
10-day predictions


NORAD ID: 44598
Int'l Code: 2013-065H
Perigee: 998.2 km
Apogee: 1,208.2 km
Inclination: 100.4 °
Period: 107.2 minutes
Semi major axis: 7474 km
RCS: Unknown
Launch date: November 20, 2013
Source: People's Republic of China (PRC)
Launch site: Taiyaun Space Center, China (TSC)

Note: This is SATELLITE DEBRIS
Your satellite tracking list
Your tracking list is empty




NASA's NSSDC Master Catalog

Two Line Element Set (TLE):
1 44598U 13065H   23083.94222611  .00000004  00000-0  84840-4 0  9990
2 44598 100.4150 335.5286 0140458 153.2788 207.5666 13.43552676375325
Source of the keplerian elements: AFSPC